This demonstration page uses our WeatherBlox Daily Observations layout. Learn more.

Left ArrowRight Arrow

38.80484, -77.04692

Hourly Observations for September 11, 2020

Temp ( °F °C ) Dew Point ( °F °C ) Humidity (%) Winds ( mph kmh ) Pressure ( in mb ) Visibility ( mi km ) Precip ( " mm )
12:13 am 00:13 Mostly Cloudy 77 25 75 23.9 94 94 NNW 5 7 30.11 1020 10 16 N/A
12:25 am 00:25 Partly Cloudy 77 25 74 23.3 90 90 NW 6 9 30.11 1020 10 16 N/A
12:52 am 00:52 Partly Cloudy 77 25 74 23.3 90 90 NNW 6 9 30.10 1019 10 16 N/A
1:37 am 01:37 Mostly Cloudy 76 24.4 74 23.3 94 94 NNW 6 9 30.10 1019 10 16 N/A
1:52 am 01:52 Cloudy 76 24.4 74 23.3 94 94 NNW 7 11 30.10 1019 10 16 N/A
2:18 am 02:18 Cloudy 76 24.4 74 23.3 94 94 NNW 6 9 30.10 1019 10 16 N/A
2:42 am 02:42 Cloudy 76 24.4 74 23.3 94 94 NNW 3 6 30.09 1019 9 14 N/A
2:52 am 02:52 Cloudy 76 24.4 74 23.3 94 94 NNW 5 7 30.09 1019 9 14 N/A
3:52 am 03:52 Cloudy 76 24.4 74 23.3 94 94 N 5 7 30.09 1019 8 13 N/A
4:40 am 04:40 Cloudy 75 23.9 73 22.8 94 94 NNW 5 7 30.10 1019 10 16 N/A
4:52 am 04:52 Cloudy 75 23.9 73 22.8 94 94 NNW 7 11 30.10 1019 10 16 N/A
5:43 am 05:43 Partly Cloudy 75 23.9 73 22.8 94 94 NNW 6 9 30.11 1020 10 16 N/A
5:52 am 05:52 Partly Cloudy 75 23.9 73 22.8 94 94 NNW 6 9 30.11 1020 10 16 N/A
6:52 am 06:52 Mostly Cloudy 75 23.9 73 22.8 94 94 NNW 6 9 30.12 1020 10 16 N/A
7:35 am 07:35 Cloudy 76 24.4 73 22.8 91 91 N 10 17 30.14 1021 10 16 N/A
7:52 am 07:52 Cloudy 76 24.4 73 22.8 91 91 N 9 15 30.15 1021 10 16 N/A
8:28 am 08:28 Mostly Cloudy 77 25 73 22.8 88 88 N 10 17 30.15 1021 10 16 N/A
8:52 am 08:52 Mostly Cloudy 78 25.6 74 23.3 87 87 NNE 8 13 30.15 1021 10 16 N/A
9:01 am 09:01 Mostly Cloudy 78 25.6 74 23.3 87 87 N 9 15 30.15 1021 10 16 N/A
9:37 am 09:37 Mostly Cloudy 80 26.7 73 22.8 79 79 NNE 12 19 30.15 1021 10 16 N/A
9:52 am 09:52 Mostly Cloudy 80 26.7 73 22.8 79 79 NNE 12 19 30.15 1021 10 16 N/A
10:52 am 10:52 Cloudy 80 26.7 73 22.8 79 79 N 12 19 30.16 1021 10 16 N/A
11:52 am 11:52 Cloudy 78 25.6 72 22.2 82 82 NNW 16 26 30.16 1022 10 16 N/A
12:38 pm 12:38 Mostly Cloudy 81 27.2 71 21.7 72 72 NNW 14 22 30.16 1021 10 16 N/A
12:52 pm 12:52 Mostly Cloudy 80 26.7 71 21.7 74 74 N 12 19 30.16 1021 10 16 N/A
1:52 pm 13:52 Cloudy 80 26.7 71 21.7 74 74 N 10 17 30.16 1021 10 16 N/A
2:52 pm 14:52 Cloudy 78 25.6 69 20.6 74 74 N 10 17 30.15 1021 10 16 N/A
3:52 pm 15:52 Cloudy 78 25.6 68 20 71 71 N 12 19 30.15 1021 10 16 N/A
4:30 pm 16:30 Cloudy 77 25 67 19.4 71 71 NE 13 20 30.15 1021 10 16 N/A
4:52 pm 16:52 Cloudy 77 25 67 19.4 71 71 NE 10 17 30.14 1021 10 16 N/A
5:52 pm 17:52 Cloudy 77 25 68 20 74 74 NE 9 15 30.14 1021 10 16 N/A
6:52 pm 18:52 Mostly Cloudy 76 24.4 67 19.4 74 74 NE 9 15 30.16 1021 10 16 N/A
7:52 pm 19:52 Partly Cloudy 75 23.9 67 19.4 76 76 ENE 7 11 30.17 1022 10 16 N/A
8:52 pm 20:52 Cloudy 75 23.9 67 19.4 76 76 NE 6 9 30.19 1022 10 16 N/A
9:37 pm 21:37 Cloudy 75 23.9 66 18.9 74 74 ENE 12 19 30.20 1023 10 16 N/A
9:52 pm 21:52 Cloudy 75 23.9 67 19.4 76 76 ENE 12 19 30.20 1023 10 16 N/A
10:52 pm 22:52 Cloudy 75 23.9 67 19.4 76 76 NE 9 15 30.20 1023 10 16 N/A
11:52 pm 23:52 Cloudy with Light Rain 73 22.8 66 18.9 79 79 NE 9 15 30.20 1023 9 14 0.00 0.00

Powered by AerisWeather